Location: Warszawa
(52.2500°N, 21.0000°E)
Time: 07:23:59
(UTC+02:00)

PRISM - Visible Passes

Search period start: 16 April 2024 00:00
Search period end: 26 April 2024 00:00
Orbit: 508 x 528 km, 98.2° (Epoch: 15 April)

Date Brightness Start Highest point End Pass type
(mag) Time Alt. Az. Time Alt. Az. Time Alt. Az.
16 Apr ? 21:37:22 10° WSW 21:38:57 12° W 21:40:31 10° WNW visible
17 Apr ? 21:22:12 10° SW 21:24:42 17° W 21:27:12 10° NW visible
18 Apr ? 21:07:24 10° SSW 21:10:26 23° W 21:13:28 10° NW visible
19 Apr ? 20:52:46 10° SSW 20:56:09 32° W 20:59:33 10° NNW visible
20 Apr ? 20:38:15 10° S 20:41:51 45° W 20:45:28 10° NNW visible
21 Apr ? 20:23:49 10° S 20:27:32 65° WSW 20:31:16 10° NNW visible
22 Apr ? 21:47:06 10° W 21:47:47 10° W 21:48:28 10° WNW visible
23 Apr ? 21:31:05 10° SW 21:33:14 15° W 21:35:24 10° NW visible
24 Apr ? 21:15:50 10° SW 21:18:40 20° W 21:21:30 10° NW visible
25 Apr ? 21:00:50 10° SSW 21:04:04 28° W 21:07:21 10° NW visible
